C/2020 O2 ( Amaral )

Japanese version
Home page
Updated on August 8, 2020

---------------------------------------------------------------------

* Profile

Discovery Date July 23, 2020
Magnitude 18.1 mag
Discoverer Leonardo S. Amaral (Rio de Janeiro, Brazil)

* Orbital Elements

Epoch 2021 Aug. 14.0 TT = JDT 2459440.5                                         
T 2021 Aug. 24.12715 TT                                 Rudenko                 
q   4.9036203            (2000.0)            P               Q                  
z  -0.0000005      Peri.    9.42863     -0.17856703     +0.33620382             
 +/-0.0000000      Node   256.63043     -0.95329664     -0.29179040             
e   1.0000023      Incl.   71.89055     -0.24359664     +0.89544701             
From 63 observations 2020 July 23-31, mean residual 0".5.                       

* Finding Charts

* Magnitudes Graph

        m1 = 6.5 + 5 log d + 10.0 log r

---------------------------------------------------------------------

The orbital elements are published on M.P.E.C. 2020-P19.
The charts are made with StellaNavigator Ver.10 (AstroArts).
The magnitudes graphs are made with Comet for Windows.

---------------------------------------------------------------------

Copyright(C) Seiichi Yoshida (comet@aerith.net). All rights reserved.